Time,TemperatureF,DewpointF,PressureIn,WindDirection,WindDirectionDegrees,WindSpeedMPH,WindSpeedGustMPH,Humidity,HourlyPrecipIn,Conditions,Clouds,dailyrainin,SoftwareType,DateUTC
2013-08-21 00:04:00,58.0,55.0,29.88,South,180,3.0,10.0,91,0.00,,,0.00,weatherlink.com 1.10,2013-08-21 07:04:00,
2013-08-21 00:19:00,57.9,55.0,29.88,SSW,198,7.0,9.0,91,0.00,,,0.00,weatherlink.com 1.10,2013-08-21 07:19:00,
2013-08-21 00:35:00,57.9,55.0,29.88,SSW,210,5.0,8.0,91,0.00,,,0.00,weatherlink.com 1.10,2013-08-21 07:35:00,
2013-08-21 00:50:00,57.8,55.0,29.87,SW,217,5.0,10.0,91,0.00,,,0.00,weatherlink.com 1.10,2013-08-21 07:50:00,
2013-08-21 01:05:00,57.6,55.0,29.87,SW,229,5.0,10.0,91,0.00,,,0.00,weatherlink.com 1.10,2013-08-21 08:05:00,
2013-08-21 01:20:00,57.6,55.0,29.88,SSW,207,4.0,9.0,92,0.00,,,0.00,weatherlink.com 1.10,2013-08-21 08:20:00,
2013-08-21 01:35:00,57.7,55.0,29.88,South,190,4.0,9.0,92,0.00,,,0.00,weatherlink.com 1.10,2013-08-21 08:35:00,
2013-08-21 01:50:00,57.5,55.0,29.88,SSW,198,4.0,8.0,92,0.00,,,0.00,weatherlink.com 1.10,2013-08-21 08:50:00,
2013-08-21 02:05:00,57.3,55.0,29.88,SSE,152,6.0,10.0,92,0.00,,,0.00,weatherlink.com 1.10,2013-08-21 09:05:00,
2013-08-21 02:20:00,57.2,55.0,29.88,SW,229,3.0,9.0,92,0.00,,,0.00,weatherlink.com 1.10,2013-08-21 09:20:00,
2013-08-21 02:35:00,57.1,55.0,29.87,SW,218,3.0,8.0,92,0.00,,,0.00,weatherlink.com 1.10,2013-08-21 09:35:00,
2013-08-21 02:50:00,57.2,55.0,29.87,SSW,210,5.0,8.0,92,0.00,,,0.00,weatherlink.com 1.10,2013-08-21 09:50:00,
2013-08-21 03:05:00,57.3,55.0,29.87,SSW,207,5.0,9.0,92,0.00,,,0.00,weatherlink.com 1.10,2013-08-21 10:05:00,
2013-08-21 03:20:00,57.4,55.0,29.87,SW,233,9.0,9.0,93,0.00,,,0.00,weatherlink.com 1.10,2013-08-21 10:20:00,
2013-08-21 03:35:00,57.3,55.0,29.87,SSW,193,3.0,8.0,93,0.00,,,0.00,weatherlink.com 1.10,2013-08-21 10:35:00,
2013-08-21 03:50:00,57.4,55.0,29.87,West,259,5.0,9.0,93,0.00,,,0.00,weatherlink.com 1.10,2013-08-21 10:50:00,
2013-08-21 04:05:00,57.3,55.0,29.88,WSW,252,6.0,8.0,92,0.00,,,0.00,weatherlink.com 1.10,2013-08-21 11:05:00,
2013-08-21 04:20:00,57.3,55.0,29.87,WSW,252,5.0,8.0,93,0.00,,,0.00,weatherlink.com 1.10,2013-08-21 11:20:00,
2013-08-21 04:35:00,57.5,55.0,29.87,SW,232,7.0,10.0,92,0.00,,,0.00,weatherlink.com 1.10,2013-08-21 11:35:00,
2013-08-21 04:50:00,57.5,55.0,29.87,South,190,4.0,8.0,92,0.00,,,0.00,weatherlink.com 1.10,2013-08-21 11:50:00,
2013-08-21 05:05:00,57.5,55.0,29.87,West,259,5.0,11.0,92,0.00,,,0.00,weatherlink.com 1.10,2013-08-21 12:05:00,
2013-08-21 05:20:00,57.6,55.0,29.87,West,263,5.0,10.0,92,0.00,,,0.00,weatherlink.com 1.10,2013-08-21 12:20:00,
2013-08-21 05:35:00,57.5,55.0,29.88,WSW,257,9.0,9.0,91,0.00,,,0.00,weatherlink.com 1.10,2013-08-21 12:35:00,
2013-08-21 05:50:00,57.4,55.0,29.88,WSW,255,6.0,8.0,91,0.00,,,0.00,weatherlink.com 1.10,2013-08-21 12:50:00,
2013-08-21 06:05:00,57.3,55.0,29.88,WSW,257,2.0,8.0,91,0.00,,,0.00,weatherlink.com 1.10,2013-08-21 13:05:00,
2013-08-21 06:20:00,57.3,55.0,29.89,SSW,208,3.0,7.0,91,0.00,,,0.00,weatherlink.com 1.10,2013-08-21 13:20:00,
2013-08-21 06:35:00,57.4,55.0,29.89,SSW,212,5.0,8.0,91,0.00,,,0.00,weatherlink.com 1.10,2013-08-21 13:35:00,
2013-08-21 06:50:00,57.6,55.0,29.89,SW,215,1.0,7.0,91,0.00,,,0.00,weatherlink.com 1.10,2013-08-21 13:50:00,
2013-08-21 07:05:00,57.7,55.0,29.90,South,187,4.0,9.0,91,0.00,,,0.00,weatherlink.com 1.10,2013-08-21 14:05:00,
2013-08-21 07:20:00,57.7,55.0,29.90,SSW,201,3.0,11.0,91,0.00,,,0.00,weatherlink.com 1.10,2013-08-21 14:20:00,
2013-08-21 07:35:00,57.7,55.0,29.91,SSW,198,4.0,10.0,91,0.00,,,0.00,weatherlink.com 1.10,2013-08-21 14:35:00,
2013-08-21 07:50:00,57.8,55.0,29.91,SE,136,5.0,9.0,91,0.00,,,0.00,weatherlink.com 1.10,2013-08-21 14:50:00,
2013-08-21 08:05:00,57.6,55.0,29.91,SW,236,8.0,13.0,90,0.00,,,0.00,weatherlink.com 1.10,2013-08-21 15:05:00,
2013-08-21 08:20:00,57.8,55.0,29.91,South,186,4.0,10.0,90,0.00,,,0.00,weatherlink.com 1.10,2013-08-21 15:20:00,
2013-08-21 08:35:00,58.0,55.0,29.92,WSW,258,6.0,11.0,90,0.00,,,0.00,weatherlink.com 1.10,2013-08-21 15:35:00,
2013-08-21 08:50:00,58.1,55.0,29.92,SSW,193,3.0,11.0,89,0.00,,,0.00,weatherlink.com 1.10,2013-08-21 15:50:00,
2013-08-21 09:05:00,58.2,55.0,29.93,SSW,200,2.0,11.0,88,0.00,,,0.00,weatherlink.com 1.10,2013-08-21 16:05:00,
2013-08-21 09:20:00,58.5,55.0,29.93,SW,235,7.0,8.0,88,0.00,,,0.00,weatherlink.com 1.10,2013-08-21 16:20:00,
2013-08-21 09:35:00,58.8,55.0,29.93,SSW,207,8.0,9.0,87,0.00,,,0.00,weatherlink.com 1.10,2013-08-21 16:35:00,
2013-08-21 09:50:00,59.0,55.0,29.93,WSW,239,4.0,10.0,87,0.00,,,0.00,weatherlink.com 1.10,2013-08-21 16:50:00,
2013-08-21 10:06:00,59.3,55.0,29.93,SW,226,5.0,9.0,86,0.00,,,0.00,weatherlink.com 1.10,2013-08-21 17:06:00,
2013-08-21 10:21:00,59.2,55.0,29.93,SW,218,4.0,10.0,86,0.00,,,0.00,weatherlink.com 1.10,2013-08-21 17:21:00,
2013-08-21 10:36:00,59.5,55.0,29.93,South,173,4.0,12.0,85,0.00,,,0.00,weatherlink.com 1.10,2013-08-21 17:36:00,
2013-08-21 10:51:00,60.1,56.0,29.93,WSW,246,4.0,8.0,85,0.00,,,0.00,weatherlink.com 1.10,2013-08-21 17:51:00,
2013-08-21 11:06:00,60.1,56.0,29.93,WSW,254,4.0,11.0,85,0.00,,,0.00,weatherlink.com 1.10,2013-08-21 18:06:00,
2013-08-21 11:21:00,60.4,56.0,29.93,SW,218,10.0,12.0,85,0.00,,,0.00,weatherlink.com 1.10,2013-08-21 18:21:00,
2013-08-21 11:36:00,61.2,56.0,29.93,SSW,206,8.0,11.0,83,0.00,,,0.00,weatherlink.com 1.10,2013-08-21 18:36:00,
2013-08-21 11:51:00,62.0,56.0,29.93,SSW,204,7.0,11.0,82,0.00,,,0.00,weatherlink.com 1.10,2013-08-21 18:51:00,
2013-08-21 12:06:00,63.1,57.0,29.92,South,187,5.0,10.0,80,0.00,,,0.00,weatherlink.com 1.10,2013-08-21 19:06:00,
2013-08-21 12:36:00,63.8,57.0,29.92,SSW,207,5.0,10.0,78,0.00,,,0.00,weatherlink.com 1.10,2013-08-21 19:36:00,
2013-08-21 12:51:00,64.8,57.0,29.91,SSE,148,6.0,12.0,76,0.00,,,0.00,weatherlink.com 1.10,2013-08-21 19:51:00,
2013-08-21 13:06:00,64.7,57.0,29.91,SW,219,10.0,13.0,77,0.00,,,0.00,weatherlink.com 1.10,2013-08-21 20:06:00,
2013-08-21 13:21:00,64.9,57.0,29.91,WSW,238,7.0,11.0,76,0.00,,,0.00,weatherlink.com 1.10,2013-08-21 20:21:00,
2013-08-21 13:36:00,65.1,57.0,29.91,SW,228,8.0,14.0,75,0.00,,,0.00,weatherlink.com 1.10,2013-08-21 20:36:00,
2013-08-21 13:51:00,65.1,57.0,29.90,SW,224,8.0,13.0,76,0.00,,,0.00,weatherlink.com 1.10,2013-08-21 20:51:00,
2013-08-21 14:06:00,64.7,57.0,29.90,SSW,198,9.0,16.0,75,0.00,,,0.00,weatherlink.com 1.10,2013-08-21 21:06:00,
2013-08-21 14:21:00,65.2,57.0,29.89,SSE,159,6.0,13.0,75,0.00,,,0.00,weatherlink.com 1.10,2013-08-21 21:21:00,
2013-08-21 14:36:00,66.1,57.0,29.89,West,265,6.0,12.0,73,0.00,,,0.00,weatherlink.com 1.10,2013-08-21 21:36:00,
2013-08-21 14:51:00,65.8,57.0,29.88,SSW,210,8.0,15.0,73,0.00,,,0.00,weatherlink.com 1.10,2013-08-21 21:51:00,
2013-08-21 15:06:00,66.2,57.0,29.88,SSW,200,7.0,14.0,72,0.00,,,0.00,weatherlink.com 1.10,2013-08-21 22:06:00,
2013-08-21 15:21:00,65.6,57.0,29.87,WSW,238,7.0,16.0,74,0.00,,,0.00,weatherlink.com 1.10,2013-08-21 22:21:00,
2013-08-21 15:36:00,66.3,57.0,29.86,SSW,193,8.0,14.0,72,0.00,,,0.00,weatherlink.com 1.10,2013-08-21 22:36:00,
2013-08-21 15:51:00,66.1,58.0,29.86,SW,232,9.0,16.0,74,0.00,,,0.00,weatherlink.com 1.10,2013-08-21 22:51:00,
2013-08-21 16:06:00,65.3,57.0,29.86,SW,222,11.0,14.0,75,0.00,,,0.00,weatherlink.com 1.10,2013-08-21 23:06:00,
2013-08-21 16:21:00,66.1,58.0,29.86,South,190,6.0,13.0,74,0.00,,,0.00,weatherlink.com 1.10,2013-08-21 23:21:00,
2013-08-21 16:36:00,65.8,58.0,29.85,South,183,10.0,15.0,75,0.00,,,0.00,weatherlink.com 1.10,2013-08-21 23:36:00,
2013-08-21 16:51:00,65.8,58.0,29.85,SSW,207,8.0,14.0,75,0.00,,,0.00,weatherlink.com 1.10,2013-08-21 23:51:00,
2013-08-21 17:06:00,65.2,57.0,29.85,SSE,155,8.0,17.0,76,0.00,,,0.00,weatherlink.com 1.10,2013-08-22 00:06:00,
2013-08-21 17:21:00,64.7,58.0,29.85,SSE,167,8.0,17.0,78,0.00,,,0.00,weatherlink.com 1.10,2013-08-22 00:21:00,
2013-08-21 17:36:00,64.5,58.0,29.86,South,187,11.0,15.0,78,0.00,,,0.00,weatherlink.com 1.10,2013-08-22 00:36:00,
2013-08-21 17:51:00,64.5,58.0,29.85,WNW,293,11.0,14.0,79,0.00,,,0.00,weatherlink.com 1.10,2013-08-22 00:51:00,
2013-08-21 18:06:00,64.1,57.0,29.86,South,177,9.0,16.0,79,0.00,,,0.00,weatherlink.com 1.10,2013-08-22 01:06:00,
2013-08-21 18:21:00,63.9,57.0,29.86,South,189,12.0,15.0,79,0.00,,,0.00,weatherlink.com 1.10,2013-08-22 01:21:00,
2013-08-21 18:36:00,63.3,57.0,29.86,SW,217,9.0,13.0,81,0.00,,,0.00,weatherlink.com 1.10,2013-08-22 01:36:00,
2013-08-21 18:52:00,63.5,58.0,29.86,SSW,195,7.0,15.0,81,0.00,,,0.00,weatherlink.com 1.10,2013-08-22 01:52:00,
2013-08-21 19:06:00,63.4,57.0,29.86,SE,136,7.0,11.0,80,0.00,,,0.00,weatherlink.com 1.10,2013-08-22 02:06:00,
2013-08-21 19:21:00,62.8,57.0,29.87,South,187,4.0,13.0,81,0.00,,,0.00,weatherlink.com 1.10,2013-08-22 02:21:00,
2013-08-21 19:36:00,62.7,57.0,29.88,SE,146,4.0,8.0,81,0.00,,,0.00,weatherlink.com 1.10,2013-08-22 02:36:00,
2013-08-21 19:51:00,61.6,56.0,29.88,SSW,194,3.0,9.0,83,0.00,,,0.00,weatherlink.com 1.10,2013-08-22 02:51:00,
2013-08-21 20:06:00,60.6,56.0,29.88,SSW,210,3.0,6.0,84,0.00,,,0.00,weatherlink.com 1.10,2013-08-22 03:06:00,
2013-08-21 20:22:00,60.1,56.0,29.89,South,179,3.0,9.0,85,0.00,,,0.00,weatherlink.com 1.10,2013-08-22 03:22:00,
2013-08-21 20:36:00,59.8,56.0,29.89,South,189,6.0,10.0,86,0.00,,,0.00,weatherlink.com 1.10,2013-08-22 03:36:00,
2013-08-21 20:51:00,59.5,56.0,29.89,SSW,203,7.0,8.0,87,0.00,,,0.00,weatherlink.com 1.10,2013-08-22 03:51:00,
2013-08-21 21:06:00,59.2,55.0,29.90,SSW,203,3.0,12.0,87,0.00,,,0.00,weatherlink.com 1.10,2013-08-22 04:06:00,
2013-08-21 21:21:00,59.1,55.0,29.89,SW,215,8.0,11.0,87,0.00,,,0.00,weatherlink.com 1.10,2013-08-22 04:21:00,
2013-08-21 21:36:00,59.2,55.0,29.90,SSW,205,4.0,9.0,87,0.00,,,0.00,weatherlink.com 1.10,2013-08-22 04:36:00,
2013-08-21 21:51:00,59.0,55.0,29.90,SSW,194,4.0,7.0,87,0.00,,,0.00,weatherlink.com 1.10,2013-08-22 04:51:00,
2013-08-21 22:07:00,58.8,55.0,29.90,SSW,206,4.0,7.0,88,0.00,,,0.00,weatherlink.com 1.10,2013-08-22 05:07:00,
2013-08-21 22:22:00,58.6,55.0,29.91,SSW,195,4.0,7.0,88,0.00,,,0.00,weatherlink.com 1.10,2013-08-22 05:22:00,
2013-08-21 22:37:00,58.5,55.0,29.91,SW,222,6.0,8.0,88,0.00,,,0.00,weatherlink.com 1.10,2013-08-22 05:37:00,
2013-08-21 22:52:00,58.3,55.0,29.91,SSW,205,4.0,7.0,89,0.00,,,0.00,weatherlink.com 1.10,2013-08-22 05:52:00,
2013-08-21 23:07:00,58.2,55.0,29.91,SW,217,3.0,8.0,89,0.00,,,0.00,weatherlink.com 1.10,2013-08-22 06:07:00,
2013-08-21 23:22:00,58.1,55.0,29.91,SW,236,8.0,8.0,89,0.00,,,0.00,weatherlink.com 1.10,2013-08-22 06:22:00,
2013-08-21 23:37:00,58.0,55.0,29.90,SW,218,6.0,9.0,89,0.00,,,0.00,weatherlink.com 1.10,2013-08-22 06:37:00,
2013-08-21 23:52:00,57.9,55.0,29.90,SSW,203,7.0,9.0,89,0.00,,,0.00,weatherlink.com 1.10,2013-08-22 06:52:00,